Find Starlink 33578

NORAD ID: 63368 Int'l Des: 2025-063 Owner: SPXS Country: US Constellation: starlink operational
LEOCIRCULAR

实时位置

正在加载3D地球...

关于 Starlink 33578

正在加载描述...

即将过境

Passes for default location (London). Set your location on the main map for personalized predictions.

高度历史

Loading altitude history...

两行轨道根数

1 63368U 25063F 26121.51976003 .00025923 00000-0 88425-3 0 9996
2 63368 53.1594 164.5439 0001177 86.1791 273.9344 15.30201584 62824
Epoch: May 1, 2026 • Age: 5 hours

当前状态

高度 480.4 km
速度 7.63 km/s
星下点 50.79°N, 153.44°E
发射日期 Mar 26, 2025
运行时间 1 years
类型 internet

技术详情

分类 Payload
质量 575.00 kg
干质量 530.00 kg
总质量 575.00 kg
长度 0.30 m
直径 4.10 m
跨度 29.00 m
形状 Box + pan
制造商 SPXS
平台类型 Starlink V2MO
阶段状态 In Orbit
所有者/国家 SPXS/US

Most Searched